#timestamp,LO_Frequency,Hit,StdDev 
1569668415.2,286047000.2,N
1569668435.0,286047002.5,N
1569668435.9,286047002.5,N
1569668455.8,286047000.5,N
1569668475.6,286047000.0,N
1569668495.4,286047000.3,N
1569668515.3,286047001.2,N
1569668535.1,286047001.2,N
1569668555.9,286047000.9,N
1569668575.7,286047001.4,N
1569668595.5,286047002.2,N
1569668615.4,286047001.8,N
1569668635.2,286047002.7,N
1569668655.1,286047002.3,N
1569668656.0,286047002.3,N
1569668675.8,286046999.7,N
1569668695.6,286047002.4,N
1569668715.5,286047000.6,N
1569668735.3,286047000.6,N
1569668755.1,286047000.5,N
1569668775.9,286046998.2,N
1569668795.7,286047000.7,N
1569668815.6,286047000.5,N
1569668835.4,286047002.0,N
1569668855.2,286047003.4,Y
1569668875.1,286047002.6,P
1569668876.0,286047002.6,P
1569668895.8,286047000.2,N
1569668915.7,286047000.4,N
1569668935.5,286046999.8,N
1569668955.3,286047004.1,Y
1569668975.2,286047001.9,P
1569668995.0,286047000.3,N
1569668995.9,286047000.3,N
1569669015.8,286047001.2,N
1569669035.6,286047001.8,N
1569669055.4,286047004.4,Y
1569669075.3,286047002.3,P
1569669095.1,286046999.7,N
1569669115.8,286047001.1,N
1569669135.7,286046998.7,N
1569669155.5,286046998.6,N
1569669175.4,286046996.9,N
1569669195.2,286046999.3,N
1569669215.0,286046996.8,N
1569669215.9,286046996.8,N
1569669265.8,286046999.6,E
1569669275.7,286046996.6,N
1569669295.6,286046996.9,P
1569669315.4,286046998.9,P
1569669335.2,286046998.9,N
1569669355.1,286047001.1,N
1569669356.0,286047001.1,N
1569669375.8,286047000.2,N
1569669395.7,286047000.0,N
1569669415.5,286047000.8,N
1569669435.3,286046999.6,N
1569669455.2,286046999.1,N
1569669475.0,286046998.7,N
1569669475.9,286046998.7,N
1569669495.8,286046999.5,N
1569669515.6,286046996.5,N
1569669535.4,286046999.1,N
1569669555.3,286046999.1,N
1569669575.1,286046999.9,N
1569669595.8,286047001.6,N
1569669615.7,286047001.5,N
1569669635.5,286047002.6,N
1569669655.4,286046998.8,N
1569669675.2,286046999.3,N
1569669695.0,286046996.9,N
1569669695.9,286046996.9,N
1569669715.8,286046998.6,N
1569669735.6,286046999.9,N
1569669755.5,286047001.8,N
1569669775.3,286047000.3,N
1569669795.1,286046998.7,N
1569669815.9,286046998.6,N
1569669835.7,286047001.1,N
1569669855.5,286047001.1,N
1569669875.4,286046999.5,N
1569669895.2,286046999.3,N
1569669915.1,286046998.3,N
1569669916.0,286046998.3,N
1569669935.8,286046998.7,N
1569669955.6,286046998.4,N
1569669975.5,286046999.7,N
1569669995.3,286047001.5,N
1569670015.2,286047002.4,N
1569670035.9,286047002.0,N
1569670055.7,286047002.0,N
1569670075.6,286046999.8,N
1569670095.4,286046999.8,N
1569670115.2,286046996.5,N
1569670135.1,286047000.2,N
1569670136.0,286047000.2,N
1569670155.8,286047000.0,N
1569670175.7,286047000.9,N
1569670195.5,286047001.0,N
1569670215.3,286047000.6,N
1569670235.2,286047001.1,N
1569670255.0,286046998.2,N
1569670255.9,286046998.2,N
1569670275.8,286047000.5,N
1569670295.6,286047001.8,N
1569670315.4,286047004.4,Y
1569670335.3,286047003.0,P
1569670355.1,286047005.7,P
1569670375.8,286047005.5,N
1569670395.7,286047007.2,Y
1569670415.5,286047004.3,P
1569670435.4,286047003.1,P
1569670455.2,286047003.5,P
1569670475.0,286047005.8,Y
1569670475.9,286047005.8,P
1569670495.8,286047000.4,N
1569670515.6,286047000.7,N
1569670535.5,286047000.2,N
1569670555.3,286047000.7,N
1569670575.1,286047001.0,N
1569670595.9,286047001.1,N
1569670615.7,286047000.6,N
1569670635.5,286046998.1,N
1569670655.4,286046998.8,N
1569670675.2,286046999.3,N
1569670695.1,286046998.9,N
1569670696.0,286046998.9,N
1569670715.8,286047001.1,N
1569670735.6,286047001.2,N
1569670755.5,286047001.2,N
1569670775.3,286046999.4,N
1569670795.1,286046999.2,N
1569670815.9,286046999.6,N
1569670835.7,286046997.2,N
1569670855.6,286046997.5,N
1569670875.4,286046997.6,N
1569670895.2,286046997.9,N
1569670915.1,286046997.5,N
1569670916.0,286046997.5,N
1569670935.8,286046997.6,N
1569670955.6,286046997.0,N
1569670975.5,286046997.3,N
1569670995.3,286046995.9,N
1569671015.2,286046995.0,N
1569671035.9,286046996.1,N
1569671055.7,286046994.0,Y
1569671075.6,286046995.2,P
1569671095.4,286046995.8,N
1569671115.3,286046995.2,P
1569671135.1,286046995.1,Y
1569671136.0,286046995.1,P
1569671155.8,286046998.3,N
1569671175.7,286046998.7,N
1569671195.5,286046999.5,N
1569671215.3,286046996.7,N
1569671235.2,286046997.2,N
1569671255.0,286046996.9,N
1569671255.9,286046996.9,N
1569671275.8,286046995.1,Y
1569671295.6,286046998.4,P
1569671315.5,286046998.9,N
1569671335.3,286046998.3,N
1569671355.1,286046998.3,N
1569671375.9,286046999.3,N
1569671395.7,286046997.7,Y
1569671415.5,286046999.5,P
1569671435.4,286047000.8,N
1569671455.2,286047000.1,N
1569671475.1,286047002.3,N
1569671476.0,286047002.3,N
1569671495.8,286047001.0,N
1569671515.6,286046998.5,N
1569671535.5,286046996.5,N
1569671555.3,286046994.9,N
1569671575.2,286046997.6,N
1569671595.9,286046997.7,N
1569671615.7,286046999.1,N
1569671635.6,286046994.9,N
1569671655.4,286046995.7,N
1569671675.2,286046995.0,N
1569671695.1,286046994.9,N
1569671696.0,286046994.9,N
1569671715.8,286046998.7,N
1569671735.7,286047001.2,N
1569671755.5,286046998.6,N
1569671775.3,286046998.3,N
1569671795.2,286046999.5,N
1569671815.0,286046998.8,N
1569671815.9,286046998.8,N
1569671835.8,286046996.5,N
1569671855.6,286046998.1,N
1569671875.4,286046996.7,N
1569671895.3,286046996.9,N
1569671915.1,286046997.7,N
1569671935.8,286046997.3,N
1569671955.7,286046997.9,N
1569671975.5,286046997.5,N
1569671995.4,286046997.4,N
